Regional Weather Roundup
Issued by NWS Upton, NY

Current Version | Previous Version | Graphics & Text | Print | Product List | Glossary Off
Versions: 1 2 3 4 5 6 7 8 9 10 11 12 13 14 15 16 17 18 19 20 21 22 23 24 25 26 27 28 29

000
ASUS41 KOKX 251005
RWROKX

REGIONAL WEATHER ROUNDUP
NATIONAL WEATHER SERVICE NEW YORK NY
600 AM EDT MON JUL 25 2016

NOTE: "FAIR" INDICATES FEW OR NO CLOUDS BELOW 12,000 FEET WITH NO
SIGNIFICANT WEATHER AND/OR OBSTRUCTIONS TO VISIBILITY.

NYZ071-072-176-178-NJZ106-104-251100-
NEW YORK CITY METRO AREA

CITY           SKY/WX    TMP DP  RH WIND       PRES   REMARKS
Central Park   LGT RAIN  80  64  58 VRB5      29.97R
LaGuardia APRT CLOUDY    80  67  64 SW9G18    29.93R
Kennedy INTL   LGT RAIN  75  70  84 SW8       29.96R
Newark/Liberty CLOUDY    79  67  66 S6        29.94R
BRNX BOT. GARD   N/A     79  64  61 SE5       29.94R
Wall St Helipt CLOUDY    79  66  65 CALM      29.95R
Teterboro      LGT RAIN  79  67  66 S8        29.93R
$$

NYZ177-179-078>081-251100-
LONG ISLAND NEW YORK

CITY           SKY/WX    TMP DP  RH WIND       PRES   REMARKS
FARMINGDALE    CLOUDY    78  67  68 SW8       29.95S
ISLIP          MOCLDY    76  72  87 SW8       29.95S
SHIRLEY        CLOUDY    74  72  93 S5        29.96S
RIVERHEAD      NOT AVBL
WESTHAMPTON    CLOUDY    70  68  93 S3        29.98R
SOUTHAMPTON      N/A     72  70  94 SW2       29.92S
BRIDGEHAMPTON    N/A     70  68  94 S2        29.95S
EAST HAMPTON   FAIR      72  69  91 SW6       29.96R
MONTAUK POINT    N/A     75  69  81 VRB3      29.97S
$$

NYZ052-065-067-251100-
HUDSON VALLEY

CITY           SKY/WX    TMP DP  RH WIND       PRES   REMARKS
WHITE PLAINS   CLOUDY    74  69  85 CALM      29.95S
NEWBURGH       MOCLDY    73  68  83 CALM      29.96R
MONTGOMERY     CLOUDY    69  65  86 CALM      29.94S
POUGHKEEPSIE   CLOUDY    72  66  81 CALM      29.93R
ALBANY         CLOUDY    67  63  87 CALM      29.93R
$$

NJZ001-105-106-008-010-013-015-019>022-104-251100-
NEW JERSEY

CITY           SKY/WX    TMP DP  RH WIND       PRES   REMARKS
NEWARK/LIBERTY CLOUDY    79  67  66 S6        29.94R
TETERBORO      LGT RAIN  79  67  66 S8        29.93R
CALDWELL       CLOUDY    79  66  64 SW5       29.94R
MORRISTOWN     MOCLDY    75  63  64 CALM      29.94S
SOMERVILLE     CLOUDY    73  70  90 CALM      29.94R
SUSSEX         CLOUDY    70  68  93 CALM      29.95S
ANDOVER          N/A     72  67  84 S3        29.96R
TRENTON        RAIN      74  71  91 SW8       29.97R
MILLVILLE      CLOUDY    78  76  93 CALM      29.95R FOG
ATLANTIC CITY  CLOUDY    79  76  90 S8        29.95S FOG
WRIGHTSTOWN    TSTM      74  72  95 W9        29.97R FOG
TOMS RIVER     CLOUDY    77  75  93 SW6       29.97R
BELMAR         CLOUDY    77  72  84 W8        29.98R
$$

PAZ047>061-062-071-251100-
EASTERN PENNSYLVANIA

CITY           SKY/WX    TMP DP  RH WIND       PRES   REMARKS
PHILADELPHIA   CLOUDY    75  73  93 N7        29.96F
ALLENTOWN      CLOUDY    75  68  78 SW3       29.95S
SCRANTON       PTCLDY    73  69  87 SW6       29.97S
$$

CTZ002-004>006-009-010-012-RIZ004-006-007-MAZ004-011-015-251100-
SOUTHERN NEW ENGLAND
 IN CT

CITY           SKY/WX    TMP DP  RH WIND       PRES   REMARKS
BRADLEY INTL   PTCLDY    66  61  84 W5        29.95R
HARTFORD       CLEAR     72  68  87 S3        29.95R
DANBURY        CLOUDY    70  66  87 CALM      29.97S
WTRBRY/OXFORD  PTCLDY    70  64  83 SW3       29.97S
BRIDGEPORT     CLOUDY    75  70  84 CALM      29.95R
MERIDEN        CLOUDY    69  65  86 CALM      29.95S
NEW HAVEN      CLOUDY    72  70  93 CALM      29.95S
CHESTER        FAIR      72  70  94 CALM      29.97R
GROTON         PTCLDY    70  67  90 CALM      29.95R
WILLIMANTIC    NOT AVBL

 IN RI

CITY           SKY/WX    TMP DP  RH WIND       PRES   REMARKS
PROVIDENCE     CLOUDY    68  65  90 SW5       29.96S
BLOCK ISLAND   CLOUDY    72  67  84 SW10      29.97R
WESTERLY       PTCLDY    66  61  84 CALM      29.96S

 IN MA

CITY           SKY/WX    TMP DP  RH WIND       PRES   REMARKS
BOSTON         CLOUDY    68  63  84 CALM      29.94F
WORCESTER      CLOUDY    67  51  56 SW3       29.97F
WESTFIELD      CLEAR     63  57  81 N5        29.95S
PROVINCETOWN   CLOUDY    62  61  96 CALM      29.95F
NANTUCKET      CLOUDY    69  68  96 SW7       29.97R
$$

ANZ330-335-338-340-345-350-353-355-251100-
COASTAL MARINE OBSERVATIONS


STATION/POSITION TIME  SKY/WX   TEMP    WIND        PRES    VSBY  WAVE
                                AIR SEA DIR/SP/G                  HT/PER
                 (UTC)          (F)     (DEG/KT/KT) (MB)    (MI)  (FT/S)
NY HARB ENTRANCE 0950            76 74  190/  8/ 10 1013.9          2/ 6
20S FIRE ISLAND  0850            75 72  200/  8/  8 1013.9          2/ 6
GREAT SOUTH BAY  0930            77 80  240/ 10/ 12   N/A
23 SSW MONTAUK P 0850            74 72  220/  6/  6 1014.9          2/ 6
15 E BARNEGAT LI 0922               76                N/A           2/ 6
HUDSON CANYON    0850            77 77              1014.7          2/ 5
KINGS POINT      0900            76 71              1013.4
EXECUTION ROCKS  0900            76     190/  8/ 12   N/A
CENTRAL LI SOUND NOT AVBL
EASTERN LI SOUND 0900            69 67  140/  4/  4   N/A
ROBBINS REEF     0912            77     170/  8/  9 1013.0
$$


>>>>>>>>>>>>>>>>>>>>>>>>>>>> KEY <<<<<<<<<<<<<<<<<<<<<<<<<<<
>                                                          <
>     SKY/WX - SKY CONDITION/PRESENT WEATHER               <
>     TMP    - TEMPERATURE IN FAHRENHEIT                   <
>     DP     - DEWPOINT IN FAHRENHEIT                      <
>     RH     - RELATIVE HUMIDITY IN PERCENT                <
>     WIND   - DIRECTION AND SPEED IN MPH                  <
>     PRES   - MEAN SEA LEVEL PRESSURE IN INCHES OF HG     <
>     WCI    - WIND CHILL INDEX                            <
>     VSB    - VISIBILITY IN MILES                         <
>     HX     - HEAT INDEX                                  <
>     TC     - TEMPERATURE IN CELSIUS                      <
>     VRB    - VARIABLE WIND DIRECTION                     <
>                                                          <
>>>>>>>>>>>>>>>>>>>>>>>>>>>> KEY <<<<<<<<<<<<<<<<<<<<<<<<<<<






USA.gov is the U.S. government's official web portal to all federal, state and local government web resources and services.